User: anonymous   Login
Location: Red Shale Campground
(45.5700°N, 106.1600°W)
Time: 17:02:51
(UTC-06:00)
Language:

FENGYUN 3A - Orbit

View from above orbital plane
View from above orbital plane
View from above satellite
View from above satellite

Ground track
Ground track

The orbit data is extracted from the following two-line orbital elements,

1 32958U 08026A   15211.73942353  .00000005  00000-0  22227-4 0  9993
2 32958 098.4991 260.5236 0010484 111.0872 249.1422 14.19568798371801
Epoch (UTC): 30 July 2015 17:44:46
Eccentricity: 0.0010484
inclination: 98.4991°
perigee height: 819 km
apogee height: 834 km
right ascension of ascending node: 260.5236°
argument of perigee: 111.0872°
revolutions per day: 14.19568798
mean anomaly at epoch: 249.1422°
orbit number at epoch: 37180

The dashed part of the orbit path shows where the satellite is in the earth's shadow,  

DLR